{"data":{"norad_id":65769,"epoch":"2026-09-20T23:13:00.592608Z","epoch_age_seconds":106320,"freshness":"FRESH","line1":"1 65769U 25217H   26263.96736797  .00001768  00000+0  26088-3 0  9991","line2":"2 65769  51.9034 239.6109 0000682  75.4520 284.6518 14.79937892 54075","mean_motion":14.79937892,"eccentricity":6.82e-5,"inclination_deg":51.9034,"raan_deg":239.6109,"arg_perigee_deg":75.452,"mean_anomaly_deg":284.6518,"bstar":0.00026088,"rev_number":5407,"period_min":97.301380536583,"perigee_km":629.04226416566,"apogee_km":629.99810860589,"semimajor_km":7007.6571863858,"source":"CELESTRAK","updated_at":"2026-09-21T09:00:15.558206Z"}}